Time,TemperatureF,DewpointF,PressureIn,WindDirection,WindDirectionDegrees,WindSpeedMPH,WindSpeedGustMPH,Humidity,HourlyPrecipIn,Conditions,Clouds,dailyrainin,SoftwareType,DateUTC
2013-10-19 00:01:00,34.2,33.2,30.20,SW,221,1.0,1.0,96,0.00,,---,0.00,VWS V14.01,2013-10-19 05:01:00,
2013-10-19 00:06:00,34.3,33.3,30.20,SW,236,0.0,4.0,96,0.00,,---,0.00,VWS V14.01,2013-10-19 05:06:00,
2013-10-19 00:11:00,34.3,33.3,30.20,SSW,203,0.0,4.0,96,0.00,,---,0.00,VWS V14.01,2013-10-19 05:11:00,
2013-10-19 00:16:00,34.4,33.4,30.20,South,191,0.0,0.0,96,0.00,,---,0.00,VWS V14.01,2013-10-19 05:16:00,
2013-10-19 00:20:00,34.4,33.4,30.20,SW,222,0.0,1.0,96,0.00,,---,0.00,VWS V14.01,2013-10-19 05:20:00,
2013-10-19 00:25:00,34.5,33.5,30.20,SW,222,0.0,1.0,96,0.00,,---,0.00,VWS V14.01,2013-10-19 05:25:00,
2013-10-19 00:30:00,34.6,33.6,30.20,SW,220,0.0,0.0,96,0.00,,---,0.00,VWS V14.01,2013-10-19 05:30:00,
2013-10-19 00:35:00,34.6,33.6,30.20,SSW,193,0.0,1.0,96,0.00,,---,0.00,VWS V14.01,2013-10-19 05:35:00,
2013-10-19 00:40:00,34.6,33.6,30.20,SSW,212,0.0,1.0,96,0.00,,---,0.00,VWS V14.01,2013-10-19 05:40:00,
2013-10-19 00:45:00,34.6,33.6,30.19,SW,215,1.0,1.0,96,0.00,,---,0.00,VWS V14.01,2013-10-19 05:45:00,
2013-10-19 00:50:00,34.6,33.6,30.19,SSW,205,0.0,1.0,96,0.00,,---,0.00,VWS V14.01,2013-10-19 05:50:00,
2013-10-19 00:55:00,34.6,33.6,30.19,South,177,0.0,1.0,96,0.00,,---,0.00,VWS V14.01,2013-10-19 05:55:00,
2013-10-19 01:00:00,34.6,33.6,30.19,SW,233,0.0,0.0,96,0.00,,---,0.00,VWS V14.01,2013-10-19 06:00:00,
2013-10-19 01:05:00,34.5,33.5,30.19,SW,224,0.0,1.0,96,0.00,,---,0.00,VWS V14.01,2013-10-19 06:05:00,
2013-10-19 01:10:00,34.5,33.5,30.19,SW,224,0.0,1.0,96,0.00,,---,0.00,VWS V14.01,2013-10-19 06:10:00,
2013-10-19 01:15:00,34.5,33.5,30.19,SW,225,0.0,0.0,96,0.00,,---,0.00,VWS V14.01,2013-10-19 06:15:00,
2013-10-19 01:20:00,34.5,33.5,30.18,SW,225,1.0,2.0,96,0.00,,---,0.00,VWS V14.01,2013-10-19 06:20:00,
2013-10-19 01:25:00,34.5,33.5,30.18,SSW,205,0.0,4.0,96,0.00,,---,0.00,VWS V14.01,2013-10-19 06:25:00,
2013-10-19 01:30:00,34.4,33.4,30.18,SSW,210,1.0,4.0,96,0.00,,---,0.00,VWS V14.01,2013-10-19 06:30:00,
2013-10-19 01:35:00,34.4,33.4,30.18,WSW,238,0.0,3.0,96,0.00,,---,0.00,VWS V14.01,2013-10-19 06:35:00,
2013-10-19 01:40:00,34.4,33.4,30.18,SW,236,0.0,3.0,96,0.00,,---,0.00,VWS V14.01,2013-10-19 06:40:00,
2013-10-19 01:45:00,34.3,33.3,30.18,SSE,155,0.0,3.0,96,0.00,,---,0.00,VWS V14.01,2013-10-19 06:45:00,
2013-10-19 01:50:00,34.4,33.4,30.18,WSW,238,0.0,3.0,96,0.00,,---,0.00,VWS V14.01,2013-10-19 06:50:00,
2013-10-19 01:55:00,34.4,33.4,30.18,WSW,246,0.0,3.0,96,0.00,,---,0.00,VWS V14.01,2013-10-19 06:55:00,
2013-10-19 02:00:00,34.4,33.4,30.18,SW,233,0.0,5.0,96,0.00,,---,0.00,VWS V14.01,2013-10-19 07:00:00,
2013-10-19 02:05:00,34.4,33.4,30.17,SW,223,0.0,5.0,96,0.00,,---,0.00,VWS V14.01,2013-10-19 07:05:00,
2013-10-19 02:10:00,34.4,33.4,30.17,South,172,0.0,5.0,96,0.00,,---,0.00,VWS V14.01,2013-10-19 07:10:00,
2013-10-19 02:15:00,34.3,33.3,30.17,West,266,0.0,5.0,96,0.00,,---,0.00,VWS V14.01,2013-10-19 07:15:00,
2013-10-19 02:20:00,34.3,33.3,30.17,SSW,205,0.0,1.0,96,0.00,,---,0.00,VWS V14.01,2013-10-19 07:20:00,
2013-10-19 02:25:00,34.2,33.2,30.17,SW,233,0.0,1.0,96,0.00,,---,0.00,VWS V14.01,2013-10-19 07:25:00,
2013-10-19 02:30:00,34.2,33.2,30.17,WSW,257,0.0,1.0,96,0.00,,---,0.00,VWS V14.01,2013-10-19 07:30:00,
2013-10-19 02:35:00,34.1,33.1,30.17,SW,221,0.0,1.0,96,0.00,,---,0.00,VWS V14.01,2013-10-19 07:35:00,
2013-10-19 02:40:00,34.1,33.1,30.18,SW,231,0.0,1.0,96,0.00,,---,0.00,VWS V14.01,2013-10-19 07:40:00,
2013-10-19 02:45:00,34.1,33.1,30.17,West,266,1.0,1.0,96,0.00,,---,0.00,VWS V14.01,2013-10-19 07:45:00,
2013-10-19 02:50:00,34.0,33.0,30.17,SW,217,0.0,1.0,96,0.00,,---,0.00,VWS V14.01,2013-10-19 07:50:00,
2013-10-19 02:55:00,34.0,33.0,30.17,WSW,252,0.0,1.0,96,0.00,,---,0.00,VWS V14.01,2013-10-19 07:55:00,
2013-10-19 03:00:00,33.9,32.9,30.17,SW,219,0.0,1.0,96,0.00,,---,0.00,VWS V14.01,2013-10-19 08:00:00,
2013-10-19 03:05:00,33.9,32.9,30.17,SW,224,0.0,1.0,96,0.00,,---,0.00,VWS V14.01,2013-10-19 08:05:00,
2013-10-19 03:10:00,33.8,32.8,30.17,SW,231,0.0,1.0,96,0.00,,---,0.00,VWS V14.01,2013-10-19 08:10:00,
2013-10-19 03:15:00,33.8,32.8,30.17,SW,223,0.0,1.0,96,0.00,,---,0.00,VWS V14.01,2013-10-19 08:15:00,
2013-10-19 03:20:00,33.7,32.7,30.17,WSW,241,0.0,1.0,96,0.00,,---,0.00,VWS V14.01,2013-10-19 08:20:00,
2013-10-19 03:25:00,33.7,32.7,30.17,SW,226,0.0,1.0,96,0.00,,---,0.00,VWS V14.01,2013-10-19 08:25:00,
2013-10-19 03:30:00,33.6,32.6,30.17,WSW,242,0.0,1.0,96,0.00,,---,0.00,VWS V14.01,2013-10-19 08:30:00,
2013-10-19 03:35:00,33.5,32.5,30.17,WSW,241,0.0,1.0,96,0.00,,---,0.00,VWS V14.01,2013-10-19 08:35:00,
2013-10-19 03:40:00,33.5,32.5,30.17,WSW,241,0.0,1.0,96,0.00,,---,0.00,VWS V14.01,2013-10-19 08:40:00,
2013-10-19 03:45:00,33.3,32.3,30.17,WSW,241,0.0,1.0,96,0.00,,---,0.00,VWS V14.01,2013-10-19 08:45:00,
2013-10-19 03:50:00,33.2,32.2,30.16,WSW,242,0.0,0.0,96,0.00,,---,0.00,VWS V14.01,2013-10-19 08:50:00,
2013-10-19 03:55:00,33.2,32.2,30.16,WSW,242,0.0,0.0,96,0.00,,---,0.00,VWS V14.01,2013-10-19 08:55:00,
2013-10-19 04:00:00,33.1,32.1,30.16,SW,236,0.0,0.0,96,0.00,,---,0.00,VWS V14.01,2013-10-19 09:00:00,
2013-10-19 04:05:00,33.0,32.0,30.16,SW,236,0.0,0.0,96,0.00,,---,0.00,VWS V14.01,2013-10-19 09:05:00,
2013-10-19 04:10:00,33.0,32.0,30.16,SW,236,0.0,0.0,96,0.00,,---,0.00,VWS V14.01,2013-10-19 09:10:00,
2013-10-19 04:15:00,32.9,31.9,30.16,SW,236,0.0,0.0,96,0.00,,---,0.00,VWS V14.01,2013-10-19 09:15:00,
2013-10-19 04:20:00,32.8,31.8,30.16,SW,236,0.0,0.0,96,0.00,,---,0.00,VWS V14.01,2013-10-19 09:20:00,
2013-10-19 04:25:00,32.8,31.8,30.16,SW,236,0.0,0.0,96,0.00,,---,0.00,VWS V14.01,2013-10-19 09:25:00,
2013-10-19 04:30:00,32.7,31.7,30.16,SW,236,0.0,0.0,96,0.00,,---,0.00,VWS V14.01,2013-10-19 09:30:00,
2013-10-19 04:35:00,32.7,31.7,30.16,SW,236,0.0,0.0,96,0.00,,---,0.00,VWS V14.01,2013-10-19 09:35:00,
2013-10-19 04:40:00,32.6,31.6,30.16,SW,236,0.0,0.0,96,0.00,,---,0.00,VWS V14.01,2013-10-19 09:40:00,
2013-10-19 04:45:00,32.5,31.5,30.16,SW,236,0.0,0.0,96,0.00,,---,0.00,VWS V14.01,2013-10-19 09:45:00,
2013-10-19 04:50:00,32.5,31.5,30.16,SW,236,0.0,0.0,96,0.00,,---,0.00,VWS V14.01,2013-10-19 09:50:00,
2013-10-19 04:55:00,32.4,31.4,30.16,SW,236,0.0,0.0,96,0.00,,---,0.00,VWS V14.01,2013-10-19 09:55:00,
2013-10-19 05:00:00,32.3,31.3,30.16,SW,236,0.0,0.0,96,0.00,,---,0.00,VWS V14.01,2013-10-19 10:00:00,
2013-10-19 05:05:00,32.1,31.1,30.16,SW,236,0.0,0.0,96,0.00,,---,0.00,VWS V14.01,2013-10-19 10:05:00,
2013-10-19 05:10:00,32.1,31.1,30.16,SW,236,0.0,1.0,96,0.00,,---,0.00,VWS V14.01,2013-10-19 10:10:00,
2013-10-19 05:15:00,32.1,31.4,30.16,SW,236,0.0,1.0,97,0.00,,---,0.00,VWS V14.01,2013-10-19 10:15:00,
2013-10-19 05:20:00,32.1,31.1,30.17,SW,235,0.0,1.0,96,0.00,,---,0.00,VWS V14.01,2013-10-19 10:20:00,
2013-10-19 05:25:00,32.1,31.4,30.17,WSW,250,0.0,1.0,97,0.00,,---,0.00,VWS V14.01,2013-10-19 10:25:00,
2013-10-19 05:30:00,32.1,31.4,30.17,SW,226,0.0,1.0,97,0.00,,---,0.00,VWS V14.01,2013-10-19 10:30:00,
2013-10-19 05:35:00,32.1,31.4,30.17,SW,226,0.0,0.0,97,0.00,,---,0.00,VWS V14.01,2013-10-19 10:35:00,
2013-10-19 05:40:00,31.5,30.5,30.17,SW,226,0.0,1.0,96,0.00,,---,0.00,VWS V14.01,2013-10-19 10:40:00,
2013-10-19 05:45:00,31.5,30.5,30.17,SW,226,0.0,1.0,96,0.00,,---,0.00,VWS V14.01,2013-10-19 10:45:00,
2013-10-19 05:50:00,31.5,30.5,30.17,SW,226,0.0,0.0,96,0.00,,---,0.00,VWS V14.01,2013-10-19 10:50:00,
2013-10-19 05:55:00,31.5,30.5,30.16,SW,226,0.0,0.0,96,0.00,,---,0.00,VWS V14.01,2013-10-19 10:55:00,
2013-10-19 06:00:00,31.5,30.5,30.16,SW,226,0.0,0.0,96,0.00,,---,0.00,VWS V14.01,2013-10-19 11:00:00,
2013-10-19 06:05:00,31.5,30.5,30.16,SW,226,0.0,0.0,96,0.00,,---,0.00,VWS V14.01,2013-10-19 11:05:00,
2013-10-19 06:10:00,31.5,30.5,30.16,SW,226,0.0,0.0,96,0.00,,---,0.00,VWS V14.01,2013-10-19 11:10:00,
2013-10-19 06:15:00,31.5,30.5,30.17,SW,226,0.0,0.0,96,0.00,,---,0.00,VWS V14.01,2013-10-19 11:15:00,
2013-10-19 06:20:00,31.5,30.5,30.16,SW,226,0.0,0.0,96,0.00,,---,0.00,VWS V14.01,2013-10-19 11:20:00,
2013-10-19 06:25:00,31.5,30.5,30.16,SW,226,0.0,0.0,96,0.00,,---,0.00,VWS V14.01,2013-10-19 11:25:00,
2013-10-19 06:30:00,31.5,30.5,30.16,SW,226,0.0,0.0,96,0.00,,---,0.00,VWS V14.01,2013-10-19 11:30:00,
2013-10-19 06:35:00,31.5,30.5,30.17,SW,226,0.0,0.0,96,0.00,,---,0.00,VWS V14.01,2013-10-19 11:35:00,
2013-10-19 06:40:00,31.5,30.5,30.16,SW,226,0.0,0.0,96,0.00,,---,0.00,VWS V14.01,2013-10-19 11:40:00,
2013-10-19 06:45:00,31.5,30.5,30.16,SW,226,0.0,0.0,96,0.00,,---,0.00,VWS V14.01,2013-10-19 11:45:00,
2013-10-19 06:50:00,31.5,30.5,30.16,SW,226,0.0,0.0,96,0.00,,---,0.00,VWS V14.01,2013-10-19 11:50:00,
2013-10-19 06:55:00,31.5,30.5,30.16,SW,226,0.0,0.0,96,0.00,,---,0.00,VWS V14.01,2013-10-19 11:55:00,
2013-10-19 07:00:00,31.5,30.5,30.16,SW,226,0.0,0.0,96,0.00,,---,0.00,VWS V14.01,2013-10-19 12:00:00,
2013-10-19 07:05:00,31.5,30.5,30.15,SW,226,0.0,0.0,96,0.00,,---,0.00,VWS V14.01,2013-10-19 12:05:00,
2013-10-19 07:10:00,31.5,30.5,30.15,SW,226,0.0,0.0,96,0.00,,---,0.00,VWS V14.01,2013-10-19 12:10:00,
2013-10-19 07:15:00,31.5,30.5,30.15,SW,226,0.0,0.0,96,0.00,,---,0.00,VWS V14.01,2013-10-19 12:15:00,
2013-10-19 07:20:00,31.5,30.5,30.16,SW,226,0.0,0.0,96,0.00,,---,0.00,VWS V14.01,2013-10-19 12:20:00,
2013-10-19 07:25:00,31.5,30.5,30.16,SW,226,0.0,0.0,96,0.00,,---,0.00,VWS V14.01,2013-10-19 12:25:00,
2013-10-19 07:30:00,31.5,30.5,30.16,SW,226,0.0,0.0,96,0.00,,---,0.00,VWS V14.01,2013-10-19 12:30:00,
2013-10-19 07:35:00,31.5,30.5,30.15,SW,226,0.0,0.0,96,0.00,,---,0.00,VWS V14.01,2013-10-19 12:35:00,
2013-10-19 07:40:00,31.5,30.5,30.15,SW,226,0.0,0.0,96,0.00,,---,0.00,VWS V14.01,2013-10-19 12:40:00,
2013-10-19 07:45:00,31.5,30.5,30.16,SW,226,0.0,0.0,96,0.00,,---,0.00,VWS V14.01,2013-10-19 12:45:00,
2013-10-19 07:50:00,31.5,30.5,30.15,SW,226,0.0,0.0,96,0.00,,---,0.00,VWS V14.01,2013-10-19 12:50:00,
2013-10-19 07:55:00,31.5,30.5,30.15,SW,226,0.0,0.0,96,0.00,,---,0.00,VWS V14.01,2013-10-19 12:55:00,
2013-10-19 08:00:00,31.5,30.5,30.15,SW,226,0.0,0.0,96,0.00,,---,0.00,VWS V14.01,2013-10-19 13:00:00,
2013-10-19 08:05:00,31.5,30.5,30.15,SW,226,0.0,0.0,96,0.00,,---,0.00,VWS V14.01,2013-10-19 13:05:00,
2013-10-19 08:10:00,31.5,30.5,30.15,SW,226,0.0,0.0,96,0.00,,---,0.00,VWS V14.01,2013-10-19 13:10:00,
2013-10-19 08:15:00,31.5,30.5,30.15,SW,226,0.0,0.0,96,0.00,,---,0.00,VWS V14.01,2013-10-19 13:15:00,
2013-10-19 08:20:00,31.5,30.5,30.15,SW,226,0.0,0.0,96,0.00,,---,0.00,VWS V14.01,2013-10-19 13:20:00,
2013-10-19 08:25:00,31.5,30.5,30.15,SW,226,0.0,0.0,96,0.00,,---,0.00,VWS V14.01,2013-10-19 13:25:00,
2013-10-19 08:30:00,31.5,30.5,30.15,SW,226,0.0,0.0,96,0.00,,---,0.00,VWS V14.01,2013-10-19 13:30:00,
2013-10-19 08:35:00,33.7,32.7,30.15,South,191,0.0,1.0,96,0.00,,---,0.00,VWS V14.01,2013-10-19 13:35:00,
2013-10-19 08:40:00,34.2,33.2,30.15,SW,227,0.0,1.0,96,0.00,,---,0.00,VWS V14.01,2013-10-19 13:40:00,
2013-10-19 08:45:00,34.6,33.6,30.15,SSW,203,0.0,1.0,96,0.00,,---,0.00,VWS V14.01,2013-10-19 13:45:00,
2013-10-19 08:50:00,35.1,33.8,30.15,SW,235,0.0,1.0,95,0.00,,---,0.00,VWS V14.01,2013-10-19 13:50:00,
2013-10-19 08:55:00,35.5,34.2,30.15,WSW,252,0.0,1.0,95,0.00,,---,0.00,VWS V14.01,2013-10-19 13:55:00,
2013-10-19 09:00:00,35.9,34.3,30.15,South,187,0.0,1.0,94,0.00,,---,0.00,VWS V14.01,2013-10-19 14:00:00,
2013-10-19 09:05:00,36.4,34.6,30.15,SSW,211,0.0,1.0,93,0.00,,---,0.00,VWS V14.01,2013-10-19 14:05:00,
2013-10-19 09:10:00,36.9,34.8,30.15,WSW,239,0.0,1.0,92,0.00,,---,0.00,VWS V14.01,2013-10-19 14:10:00,
2013-10-19 09:14:00,37.2,35.1,30.15,SW,226,0.0,1.0,92,0.00,,---,0.00,VWS V14.01,2013-10-19 14:14:00,
2013-10-19 09:19:00,37.6,35.2,30.15,SW,221,0.0,1.0,91,0.00,,---,0.00,VWS V14.01,2013-10-19 14:19:00,
2013-10-19 09:24:00,38.0,35.3,30.15,SSW,212,0.0,2.0,90,0.00,,---,0.00,VWS V14.01,2013-10-19 14:24:00,
2013-10-19 09:29:00,38.5,35.5,30.15,West,264,0.0,2.0,89,0.00,,---,0.00,VWS V14.01,2013-10-19 14:29:00,
2013-10-19 09:34:00,38.9,35.7,30.15,West,269,6.0,7.0,88,0.01,,---,0.01,VWS V14.01,2013-10-19 14:34:00,
2013-10-19 09:39:00,39.3,35.8,30.15,West,278,3.0,8.0,87,0.02,,---,0.02,VWS V14.01,2013-10-19 14:39:00,
2013-10-19 09:44:00,39.7,36.2,30.15,SW,233,3.0,8.0,87,0.02,,---,0.02,VWS V14.01,2013-10-19 14:44:00,
2013-10-19 09:49:00,40.1,36.5,30.15,West,274,5.0,6.0,87,0.02,,---,0.02,VWS V14.01,2013-10-19 14:49:00,
2013-10-19 09:54:00,40.5,36.9,30.15,NW,305,3.0,8.0,87,0.02,,---,0.02,VWS V14.01,2013-10-19 14:54:00,
2013-10-19 09:59:00,41.0,37.4,30.15,WSW,253,1.0,8.0,87,0.03,,---,0.03,VWS V14.01,2013-10-19 14:59:00,
2013-10-19 10:04:00,41.5,37.6,30.15,SW,233,1.0,4.0,86,0.03,,---,0.03,VWS V14.01,2013-10-19 15:04:00,
2013-10-19 10:09:00,41.9,37.4,30.15,WSW,248,1.0,9.0,84,0.03,,---,0.03,VWS V14.01,2013-10-19 15:09:00,
2013-10-19 10:14:00,42.3,37.5,30.15,SSW,197,1.0,9.0,83,0.04,,---,0.04,VWS V14.01,2013-10-19 15:14:00,
2013-10-19 10:19:00,42.6,37.5,30.15,SSE,150,5.0,8.0,82,0.04,,---,0.04,VWS V14.01,2013-10-19 15:19:00,
2013-10-19 10:24:00,43.0,37.9,30.15,SW,225,6.0,8.0,82,0.05,,---,0.05,VWS V14.01,2013-10-19 15:24:00,
2013-10-19 10:29:00,43.4,38.3,30.15,West,280,0.0,9.0,82,0.05,,---,0.05,VWS V14.01,2013-10-19 15:29:00,
2013-10-19 10:34:00,43.9,38.8,30.15,WNW,293,1.0,4.0,82,0.06,,---,0.06,VWS V14.01,2013-10-19 15:34:00,
2013-10-19 10:39:00,44.4,39.3,30.14,WSW,239,0.0,8.0,82,0.06,,---,0.06,VWS V14.01,2013-10-19 15:39:00,
2013-10-19 10:44:00,44.8,39.3,30.15,SSW,200,2.0,8.0,81,0.07,,---,0.07,VWS V14.01,2013-10-19 15:44:00,
2013-10-19 10:49:00,45.1,39.0,30.14,West,280,3.0,10.0,79,0.06,,---,0.08,VWS V14.01,2013-10-19 15:49:00,
2013-10-19 10:54:00,45.5,39.0,30.14,West,266,5.0,11.0,78,0.06,,---,0.08,VWS V14.01,2013-10-19 15:54:00,
2013-10-19 10:59:00,45.8,39.3,30.14,West,262,4.0,11.0,78,0.07,,---,0.09,VWS V14.01,2013-10-19 15:59:00,
2013-10-19 11:04:00,46.2,39.4,30.14,SW,229,2.0,11.0,77,0.06,,---,0.09,VWS V14.01,2013-10-19 16:04:00,
2013-10-19 11:09:00,46.7,39.9,30.13,NW,316,0.0,11.0,77,0.06,,---,0.09,VWS V14.01,2013-10-19 16:09:00,
2013-10-19 11:14:00,47.1,39.6,30.13,West,266,2.0,11.0,75,0.07,,---,0.10,VWS V14.01,2013-10-19 16:14:00,
2013-10-19 11:19:00,47.6,40.1,30.13,WSW,239,3.0,7.0,75,0.06,,---,0.10,VWS V14.01,2013-10-19 16:19:00,
2013-10-19 11:24:00,48.1,40.9,30.13,WNW,293,0.0,7.0,76,0.06,,---,0.10,VWS V14.01,2013-10-19 16:24:00,
2013-10-19 11:29:00,48.9,41.0,30.13,WNW,295,2.0,7.0,74,0.07,,---,0.11,VWS V14.01,2013-10-19 16:29:00,
2013-10-19 11:34:00,49.4,41.1,30.12,SW,222,7.0,7.0,73,0.06,,---,0.11,VWS V14.01,2013-10-19 16:34:00,
2013-10-19 11:39:00,50.2,41.9,30.12,WSW,254,2.0,7.0,73,0.06,,---,0.11,VWS V14.01,2013-10-19 16:39:00,
2013-10-19 11:44:00,50.9,42.2,30.12,SSW,203,3.0,11.0,72,0.06,,---,0.11,VWS V14.01,2013-10-19 16:44:00,
2013-10-19 11:49:00,51.4,42.3,30.12,WSW,257,6.0,10.0,71,0.05,,---,0.12,VWS V14.01,2013-10-19 16:49:00,
2013-10-19 11:54:00,52.0,41.8,30.12,South,191,9.0,10.0,68,0.05,,---,0.12,VWS V14.01,2013-10-19 16:54:00,
2013-10-19 11:59:00,52.5,43.0,30.12,SW,233,8.0,10.0,70,0.05,,---,0.12,VWS V14.01,2013-10-19 16:59:00,
2013-10-19 12:04:00,53.1,43.2,30.11,SW,226,2.0,10.0,69,0.03,,---,0.12,VWS V14.01,2013-10-19 17:04:00,
2013-10-19 12:09:00,53.6,42.9,30.11,WSW,250,4.0,12.0,67,0.04,,---,0.13,VWS V14.01,2013-10-19 17:09:00,
2013-10-19 12:14:00,53.9,42.8,30.11,SW,229,4.0,12.0,66,0.04,,---,0.13,VWS V14.01,2013-10-19 17:14:00,
2013-10-19 12:19:00,54.2,41.9,30.10,WSW,245,3.0,12.0,63,0.03,,---,0.13,VWS V14.01,2013-10-19 17:19:00,
2013-10-19 12:24:00,54.7,42.4,30.10,South,188,4.0,12.0,63,0.03,,---,0.13,VWS V14.01,2013-10-19 17:24:00,
2013-10-19 12:29:00,55.2,42.8,30.09,West,269,7.0,12.0,63,0.03,,---,0.13,VWS V14.01,2013-10-19 17:29:00,
2013-10-19 12:34:00,55.6,42.0,30.09,West,269,4.0,11.0,60,0.02,,---,0.13,VWS V14.01,2013-10-19 17:34:00,
2013-10-19 12:39:00,55.9,40.9,30.09,SW,222,13.0,13.0,57,0.02,,---,0.13,VWS V14.01,2013-10-19 17:39:00,
2013-10-19 12:44:00,56.2,42.1,30.09,SW,229,5.0,13.0,59,0.02,,---,0.13,VWS V14.01,2013-10-19 17:44:00,
2013-10-19 12:49:00,56.5,41.0,30.09,West,264,6.0,12.0,56,0.01,,---,0.13,VWS V14.01,2013-10-19 17:49:00,
2013-10-19 12:54:00,56.6,41.1,30.09,SW,218,2.0,14.0,56,0.01,,---,0.13,VWS V14.01,2013-10-19 17:54:00,
2013-10-19 12:59:00,56.9,41.8,30.08,WSW,242,7.0,14.0,57,0.01,,---,0.13,VWS V14.01,2013-10-19 17:59:00,
2013-10-19 13:04:00,57.3,41.8,30.08,SSW,200,0.0,9.0,56,0.01,,---,0.13,VWS V14.01,2013-10-19 18:04:00,
2013-10-19 13:09:00,57.6,40.6,30.08,West,266,6.0,12.0,53,0.01,,---,0.13,VWS V14.01,2013-10-19 18:09:00,
2013-10-19 13:14:00,58.0,41.0,30.08,WSW,250,6.0,12.0,53,0.01,,---,0.13,VWS V14.01,2013-10-19 18:14:00,
2013-10-19 13:19:00,58.3,41.3,30.08,SSE,159,6.0,10.0,53,0.00,,---,0.13,VWS V14.01,2013-10-19 18:19:00,
2013-10-19 13:24:00,58.9,41.3,30.08,West,278,7.0,10.0,52,0.00,,---,0.13,VWS V14.01,2013-10-19 18:24:00,
2013-10-19 13:29:00,59.3,42.2,30.07,WNW,287,4.0,11.0,53,0.00,,---,0.13,VWS V14.01,2013-10-19 18:29:00,
2013-10-19 13:34:00,59.8,41.7,30.07,WSW,251,6.0,9.0,51,0.00,,---,0.13,VWS V14.01,2013-10-19 18:34:00,
2013-10-19 13:39:00,60.1,42.4,30.06,SW,224,2.0,9.0,52,0.00,,---,0.13,VWS V14.01,2013-10-19 18:39:00,
2013-10-19 13:44:00,60.3,42.1,30.06,SW,226,7.0,10.0,51,0.00,,---,0.13,VWS V14.01,2013-10-19 18:44:00,
2013-10-19 13:49:00,60.5,42.3,30.06,SW,233,8.0,11.0,51,0.00,,---,0.13,VWS V14.01,2013-10-19 18:49:00,
2013-10-19 13:54:00,60.5,42.3,30.05,SW,226,9.0,12.0,51,0.00,,---,0.13,VWS V14.01,2013-10-19 18:54:00,
2013-10-19 13:59:00,60.8,42.6,30.05,WSW,245,4.0,12.0,51,0.00,,---,0.13,VWS V14.01,2013-10-19 18:59:00,
2013-10-19 14:04:00,61.3,42.5,30.05,West,274,4.0,5.0,50,0.00,,---,0.13,VWS V14.01,2013-10-19 19:04:00,
2013-10-19 14:09:00,61.8,42.5,30.05,SSW,205,2.0,8.0,49,0.00,,---,0.13,VWS V14.01,2013-10-19 19:09:00,
2013-10-19 14:14:00,62.1,41.7,30.04,WNW,290,1.0,10.0,47,0.00,,---,0.13,VWS V14.01,2013-10-19 19:14:00,
2013-10-19 14:19:00,62.6,41.5,30.04,West,274,0.0,5.0,46,0.00,,---,0.13,VWS V14.01,2013-10-19 19:19:00,
2013-10-19 14:24:00,62.9,41.8,30.04,WSW,250,3.0,8.0,46,0.00,,---,0.13,VWS V14.01,2013-10-19 19:24:00,
2013-10-19 14:29:00,63.3,41.0,30.03,West,264,7.0,9.0,44,0.00,,---,0.13,VWS V14.01,2013-10-19 19:29:00,
2013-10-19 14:34:00,63.6,40.7,30.03,WSW,239,7.0,12.0,43,0.00,,---,0.13,VWS V14.01,2013-10-19 19:34:00,
2013-10-19 14:39:00,63.8,41.5,30.03,WSW,252,4.0,12.0,44,0.00,,---,0.13,VWS V14.01,2013-10-19 19:39:00,
2013-10-19 14:44:00,64.0,40.5,30.03,WSW,248,3.0,12.0,42,0.00,,---,0.13,VWS V14.01,2013-10-19 19:44:00,
2013-10-19 14:49:00,64.2,40.0,30.03,SSW,208,5.0,12.0,41,0.00,,---,0.13,VWS V14.01,2013-10-19 19:49:00,
2013-10-19 14:54:00,64.3,41.3,30.02,SSW,197,3.0,12.0,43,0.00,,---,0.13,VWS V14.01,2013-10-19 19:54:00,
2013-10-19 14:59:00,64.6,40.4,30.02,West,261,3.0,12.0,41,0.00,,---,0.13,VWS V14.01,2013-10-19 19:59:00,
2013-10-19 15:04:00,65.0,42.0,30.02,West,259,3.0,10.0,43,0.00,,---,0.13,VWS V14.01,2013-10-19 20:04:00,
2013-10-19 15:09:00,65.5,41.8,30.02,WNW,284,5.0,10.0,42,0.00,,---,0.13,VWS V14.01,2013-10-19 20:09:00,
2013-10-19 15:14:00,66.0,42.3,30.02,WSW,253,1.0,10.0,42,0.00,,---,0.13,VWS V14.01,2013-10-19 20:14:00,
2013-10-19 15:18:00,66.1,39.8,30.02,WNW,297,5.0,8.0,38,0.00,,---,0.13,VWS V14.01,2013-10-19 20:18:00,
2013-10-19 15:23:00,66.2,38.5,30.01,SW,215,7.0,11.0,36,0.00,,---,0.13,VWS V14.01,2013-10-19 20:23:00,
2013-10-19 15:28:00,66.2,39.2,30.01,WNW,295,8.0,12.0,37,0.00,,---,0.13,VWS V14.01,2013-10-19 20:28:00,
2013-10-19 15:33:00,66.3,37.1,30.01,WSW,242,3.0,11.0,34,0.00,,---,0.13,VWS V14.01,2013-10-19 20:33:00,
2013-10-19 15:38:00,66.2,37.8,30.01,NNW,328,4.0,11.0,35,0.00,,---,0.13,VWS V14.01,2013-10-19 20:38:00,
2013-10-19 15:43:00,66.5,38.8,30.01,WNW,283,4.0,11.0,36,0.00,,---,0.13,VWS V14.01,2013-10-19 20:43:00,
2013-10-19 15:48:00,66.6,38.1,30.00,WNW,290,2.0,10.0,35,0.00,,---,0.13,VWS V14.01,2013-10-19 20:48:00,
2013-10-19 15:53:00,66.8,39.0,30.00,NW,310,7.0,11.0,36,0.00,,---,0.13,VWS V14.01,2013-10-19 20:53:00,
2013-10-19 15:58:00,66.8,38.3,30.00,NW,308,4.0,11.0,35,0.00,,---,0.13,VWS V14.01,2013-10-19 20:58:00,
2013-10-19 16:03:00,66.9,38.4,30.00,SW,221,5.0,8.0,35,0.00,,---,0.13,VWS V14.01,2013-10-19 21:03:00,
2013-10-19 16:08:00,67.3,38.0,30.00,SSW,213,10.0,10.0,34,0.00,,---,0.13,VWS V14.01,2013-10-19 21:08:00,
2013-10-19 16:13:00,67.4,38.1,30.00,SW,218,3.0,11.0,34,0.00,,---,0.13,VWS V14.01,2013-10-19 21:13:00,
2013-10-19 16:18:00,67.6,39.7,30.00,SW,219,0.0,7.0,36,0.00,,---,0.13,VWS V14.01,2013-10-19 21:18:00,
2013-10-19 16:23:00,67.6,38.3,30.00,WSW,245,4.0,10.0,34,0.00,,---,0.13,VWS V14.01,2013-10-19 21:23:00,
2013-10-19 16:28:00,67.7,39.1,29.99,West,271,4.0,10.0,35,0.00,,---,0.13,VWS V14.01,2013-10-19 21:28:00,
2013-10-19 16:33:00,67.9,39.3,29.99,SW,215,4.0,7.0,35,0.00,,---,0.13,VWS V14.01,2013-10-19 21:33:00,
2013-10-19 16:38:00,68.0,38.6,29.99,WNW,292,2.0,12.0,34,0.00,,---,0.13,VWS V14.01,2013-10-19 21:38:00,
2013-10-19 16:43:00,68.1,37.9,29.99,SW,218,6.0,12.0,33,0.00,,---,0.13,VWS V14.01,2013-10-19 21:43:00,
2013-10-19 16:48:00,68.1,39.4,29.99,WNW,292,1.0,7.0,35,0.00,,---,0.13,VWS V14.01,2013-10-19 21:48:00,
2013-10-19 16:53:00,68.1,39.4,29.98,SW,236,0.0,10.0,35,0.00,,---,0.13,VWS V14.01,2013-10-19 21:53:00,
2013-10-19 16:58:00,68.3,38.9,29.98,SW,219,4.0,10.0,34,0.00,,---,0.13,VWS V14.01,2013-10-19 21:58:00,
2013-10-19 17:03:00,68.1,39.4,29.98,NNW,340,4.0,9.0,35,0.00,,---,0.13,VWS V14.01,2013-10-19 22:03:00,
2013-10-19 17:08:00,68.1,39.4,29.98,SW,224,4.0,9.0,35,0.00,,---,0.13,VWS V14.01,2013-10-19 22:08:00,
2013-10-19 17:13:00,68.1,39.4,29.98,SW,224,4.0,10.0,35,0.00,,---,0.13,VWS V14.01,2013-10-19 22:13:00,
2013-10-19 17:18:00,68.2,39.5,29.98,WSW,253,3.0,7.0,35,0.00,,---,0.13,VWS V14.01,2013-10-19 22:18:00,
2013-10-19 17:23:00,68.1,38.7,29.97,WSW,256,0.0,9.0,34,0.00,,---,0.13,VWS V14.01,2013-10-19 22:23:00,
2013-10-19 17:28:00,68.2,39.5,29.97,SW,226,3.0,9.0,35,0.00,,---,0.13,VWS V14.01,2013-10-19 22:28:00,
2013-10-19 17:33:00,68.1,40.2,29.97,West,262,0.0,7.0,36,0.00,,---,0.13,VWS V14.01,2013-10-19 22:33:00,
2013-10-19 17:38:00,68.0,40.1,29.97,WSW,238,2.0,7.0,36,0.00,,---,0.13,VWS V14.01,2013-10-19 22:38:00,
2013-10-19 17:43:00,67.9,39.3,29.97,West,259,0.0,7.0,35,0.00,,---,0.13,VWS V14.01,2013-10-19 22:43:00,
2013-10-19 17:48:00,67.8,39.2,29.97,West,260,3.0,7.0,35,0.00,,---,0.13,VWS V14.01,2013-10-19 22:48:00,
2013-10-19 17:53:00,67.6,39.0,29.97,WSW,256,4.0,7.0,35,0.00,,---,0.13,VWS V14.01,2013-10-19 22:53:00,
2013-10-19 17:58:00,67.4,38.8,29.97,WSW,245,3.0,7.0,35,0.00,,---,0.13,VWS V14.01,2013-10-19 22:58:00,
2013-10-19 18:03:00,67.1,39.3,29.97,SW,215,1.0,5.0,36,0.00,,---,0.13,VWS V14.01,2013-10-19 23:03:00,
2013-10-19 18:08:00,66.7,39.6,29.96,SW,229,0.0,5.0,37,0.00,,---,0.13,VWS V14.01,2013-10-19 23:08:00,
2013-10-19 18:13:00,66.3,40.0,29.96,SW,224,0.0,5.0,38,0.00,,---,0.13,VWS V14.01,2013-10-19 23:13:00,
2013-10-19 18:18:00,65.9,40.3,29.96,WSW,252,0.0,1.0,39,0.00,,---,0.13,VWS V14.01,2013-10-19 23:18:00,
2013-10-19 18:23:00,65.5,39.9,29.96,SW,218,3.0,3.0,39,0.00,,---,0.13,VWS V14.01,2013-10-19 23:23:00,
2013-10-19 18:28:00,65.2,40.3,29.96,WSW,239,0.0,3.0,40,0.00,,---,0.13,VWS V14.01,2013-10-19 23:28:00,
2013-10-19 18:33:00,64.9,40.0,29.96,WSW,255,0.0,1.0,40,0.00,,---,0.13,VWS V14.01,2013-10-19 23:33:00,
2013-10-19 18:38:00,64.4,40.2,29.96,WSW,239,0.0,1.0,41,0.00,,---,0.13,VWS V14.01,2013-10-19 23:38:00,
2013-10-19 18:43:00,63.7,39.6,29.96,SW,232,0.0,1.0,41,0.00,,---,0.13,VWS V14.01,2013-10-19 23:43:00,
2013-10-19 18:48:00,62.9,40.1,29.96,SSW,197,0.0,1.0,43,0.00,,---,0.13,VWS V14.01,2013-10-19 23:48:00,
2013-10-19 18:53:00,62.1,40.0,29.96,SSE,156,0.0,1.0,44,0.00,,---,0.13,VWS V14.01,2013-10-19 23:53:00,
2013-10-19 18:58:00,61.4,40.5,29.96,SW,222,0.0,1.0,46,0.00,,---,0.13,VWS V14.01,2013-10-19 23:58:00,
2013-10-19 19:03:00,60.8,40.5,29.97,SW,224,0.0,1.0,47,0.00,,---,0.13,VWS V14.01,2013-10-20 00:03:00,
2013-10-19 19:08:00,60.3,41.1,29.96,SW,229,0.0,1.0,49,0.00,,---,0.13,VWS V14.01,2013-10-20 00:08:00,
2013-10-19 19:13:00,59.8,41.1,29.96,SW,235,0.0,1.0,50,0.00,,---,0.13,VWS V14.01,2013-10-20 00:13:00,
2013-10-19 19:18:00,59.3,41.2,29.96,SSW,210,0.0,1.0,51,0.00,,---,0.13,VWS V14.01,2013-10-20 00:18:00,
2013-10-19 19:23:00,59.0,41.4,29.97,SSE,166,0.0,1.0,52,0.00,,---,0.13,VWS V14.01,2013-10-20 00:23:00,
2013-10-19 19:28:00,58.7,41.6,29.97,SSW,203,0.0,1.0,53,0.00,,---,0.13,VWS V14.01,2013-10-20 00:28:00,
2013-10-19 19:33:00,58.5,41.5,29.97,SW,225,0.0,1.0,53,0.00,,---,0.13,VWS V14.01,2013-10-20 00:33:00,
2013-10-19 19:38:00,58.3,41.8,29.96,SW,229,0.0,1.0,54,0.00,,---,0.13,VWS V14.01,2013-10-20 00:38:00,
2013-10-19 19:43:00,58.1,42.0,29.96,SW,218,0.0,1.0,55,0.00,,---,0.13,VWS V14.01,2013-10-20 00:43:00,
2013-10-19 19:48:00,57.9,41.8,29.96,SW,224,0.0,1.0,55,0.00,,---,0.13,VWS V14.01,2013-10-20 00:48:00,
2013-10-19 19:53:00,57.7,41.7,29.96,SSW,212,0.0,1.0,55,0.00,,---,0.13,VWS V14.01,2013-10-20 00:53:00,
2013-10-19 19:58:00,57.5,41.9,29.96,SW,222,0.0,1.0,56,0.00,,---,0.13,VWS V14.01,2013-10-20 00:58:00,
2013-10-19 20:03:00,57.2,41.7,29.96,SW,226,0.0,0.0,56,0.00,,---,0.13,VWS V14.01,2013-10-20 01:03:00,
2013-10-19 20:08:00,56.9,41.8,29.96,South,190,0.0,1.0,57,0.00,,---,0.13,VWS V14.01,2013-10-20 01:08:00,
2013-10-19 20:13:00,56.7,41.7,29.96,SW,224,0.0,1.0,57,0.00,,---,0.13,VWS V14.01,2013-10-20 01:13:00,
2013-10-19 20:18:00,56.5,41.9,29.96,SW,221,0.0,1.0,58,0.00,,---,0.13,VWS V14.01,2013-10-20 01:18:00,
2013-10-19 20:23:00,56.2,42.1,29.96,SW,226,0.0,1.0,59,0.00,,---,0.13,VWS V14.01,2013-10-20 01:23:00,
2013-10-19 20:28:00,55.8,42.1,29.96,SSW,205,0.0,1.0,60,0.00,,---,0.13,VWS V14.01,2013-10-20 01:28:00,
2013-10-19 20:33:00,55.5,42.3,29.96,SW,217,0.0,1.0,61,0.00,,---,0.13,VWS V14.01,2013-10-20 01:33:00,
2013-10-19 20:38:00,55.2,42.4,29.96,SW,222,0.0,1.0,62,0.00,,---,0.13,VWS V14.01,2013-10-20 01:38:00,
2013-10-19 20:43:00,54.9,42.6,29.96,SW,215,1.0,1.0,63,0.00,,---,0.13,VWS V14.01,2013-10-20 01:43:00,
2013-10-19 20:48:00,54.7,42.4,29.96,SW,222,0.0,0.0,63,0.00,,---,0.13,VWS V14.01,2013-10-20 01:48:00,
2013-10-19 20:53:00,54.5,42.6,29.96,SW,222,1.0,1.0,64,0.00,,---,0.13,VWS V14.01,2013-10-20 01:53:00,
2013-10-19 20:58:00,54.2,42.7,29.96,SW,226,0.0,1.0,65,0.00,,---,0.13,VWS V14.01,2013-10-20 01:58:00,
2013-10-19 21:03:00,54.1,42.6,29.96,SW,226,0.0,1.0,65,0.00,,---,0.13,VWS V14.01,2013-10-20 02:03:00,
2013-10-19 21:08:00,53.7,42.6,29.96,SW,226,0.0,1.0,66,0.00,,---,0.13,VWS V14.01,2013-10-20 02:08:00,
2013-10-19 21:13:00,53.3,42.6,29.96,SW,226,0.0,1.0,67,0.00,,---,0.13,VWS V14.01,2013-10-20 02:13:00,
2013-10-19 21:18:00,52.8,42.9,29.96,SW,226,0.0,0.0,69,0.00,,---,0.13,VWS V14.01,2013-10-20 02:18:00,
2013-10-19 21:22:00,52.3,42.8,29.96,SW,226,0.0,1.0,70,0.00,,---,0.13,VWS V14.01,2013-10-20 02:22:00,
2013-10-19 21:27:00,51.8,42.7,29.96,SW,226,0.0,1.0,71,0.00,,---,0.13,VWS V14.01,2013-10-20 02:27:00,
2013-10-19 21:32:00,51.4,42.7,29.96,SW,226,0.0,0.0,72,0.00,,---,0.13,VWS V14.01,2013-10-20 02:32:00,
2013-10-19 21:37:00,51.0,42.7,29.96,SW,226,0.0,0.0,73,0.00,,---,0.13,VWS V14.01,2013-10-20 02:37:00,
2013-10-19 21:42:00,50.7,42.4,29.96,SW,222,0.0,1.0,73,0.00,,---,0.13,VWS V14.01,2013-10-20 02:42:00,
2013-10-19 21:47:00,50.6,42.6,29.96,SW,224,0.0,1.0,74,0.00,,---,0.13,VWS V14.01,2013-10-20 02:47:00,
2013-10-19 21:52:00,50.5,42.5,29.96,SW,226,0.0,1.0,74,0.00,,---,0.13,VWS V14.01,2013-10-20 02:52:00,
2013-10-19 21:57:00,50.4,42.4,29.96,SW,226,0.0,1.0,74,0.00,,---,0.13,VWS V14.01,2013-10-20 02:57:00,
2013-10-19 22:02:00,50.4,42.4,29.96,SW,226,0.0,1.0,74,0.00,,---,0.13,VWS V14.01,2013-10-20 03:02:00,
2013-10-19 22:07:00,50.3,42.3,29.96,SW,218,0.0,1.0,74,0.00,,---,0.13,VWS V14.01,2013-10-20 03:07:00,
2013-10-19 22:12:00,50.2,42.2,29.96,SW,226,0.0,1.0,74,0.00,,---,0.13,VWS V14.01,2013-10-20 03:12:00,
2013-10-19 22:17:00,50.0,42.4,29.96,SSW,205,0.0,1.0,75,0.00,,---,0.13,VWS V14.01,2013-10-20 03:17:00,
2013-10-19 22:22:00,49.9,42.3,29.96,SW,215,0.0,1.0,75,0.00,,---,0.13,VWS V14.01,2013-10-20 03:22:00,
2013-10-19 22:27:00,49.8,42.2,29.96,SW,224,0.0,1.0,75,0.00,,---,0.13,VWS V14.01,2013-10-20 03:27:00,
2013-10-19 22:32:00,49.7,42.1,29.96,SW,218,0.0,1.0,75,0.00,,---,0.13,VWS V14.01,2013-10-20 03:32:00,
2013-10-19 22:37:00,49.5,41.9,29.96,SW,225,0.0,1.0,75,0.00,,---,0.13,VWS V14.01,2013-10-20 03:37:00,
2013-10-19 22:42:00,49.3,41.7,29.96,SW,222,0.0,1.0,75,0.00,,---,0.13,VWS V14.01,2013-10-20 03:42:00,
2013-10-19 22:47:00,49.2,42.0,29.96,SW,215,0.0,0.0,76,0.00,,---,0.13,VWS V14.01,2013-10-20 03:47:00,
2013-10-19 22:52:00,49.1,41.5,29.96,SSW,208,0.0,1.0,75,0.00,,---,0.13,VWS V14.01,2013-10-20 03:52:00,
2013-10-19 22:57:00,49.1,41.5,29.96,SW,215,0.0,1.0,75,0.00,,---,0.13,VWS V14.01,2013-10-20 03:57:00,
2013-10-19 23:01:00,49.1,41.5,29.95,SW,222,0.0,0.0,75,0.00,,---,0.13,VWS V14.01,2013-10-20 04:01:00,
2013-10-19 23:06:00,48.8,41.6,29.96,South,170,0.0,1.0,76,0.00,,---,0.13,VWS V14.01,2013-10-20 04:06:00,
2013-10-19 23:11:00,48.6,41.4,29.96,SW,231,0.0,1.0,76,0.00,,---,0.13,VWS V14.01,2013-10-20 04:11:00,
2013-10-19 23:16:00,48.4,41.2,29.95,SW,221,0.0,0.0,76,0.00,,---,0.13,VWS V14.01,2013-10-20 04:16:00,
2013-10-19 23:21:00,48.3,41.4,29.95,WSW,238,0.0,1.0,77,0.00,,---,0.13,VWS V14.01,2013-10-20 04:21:00,
2013-10-19 23:26:00,48.1,41.2,29.95,SSW,197,0.0,1.0,77,0.00,,---,0.13,VWS V14.01,2013-10-20 04:26:00,
2013-10-19 23:31:00,48.0,41.2,29.95,South,169,0.0,0.0,77,0.00,,---,0.13,VWS V14.01,2013-10-20 04:31:00,
2013-10-19 23:36:00,48.0,41.2,29.95,SSE,162,0.0,0.0,77,0.00,,---,0.13,VWS V14.01,2013-10-20 04:36:00,
2013-10-19 23:41:00,47.9,41.0,29.95,SSE,167,0.0,1.0,77,0.00,,---,0.13,VWS V14.01,2013-10-20 04:41:00,
2013-10-19 23:46:00,47.8,41.0,29.94,South,169,0.0,0.0,77,0.00,,---,0.13,VWS V14.01,2013-10-20 04:46:00,
2013-10-19 23:51:00,47.8,41.0,29.94,SSE,161,0.0,1.0,77,0.00,,---,0.13,VWS V14.01,2013-10-20 04:51:00,
2013-10-19 23:56:00,47.7,40.8,29.94,WSW,255,0.0,1.0,77,0.00,,---,0.13,VWS V14.01,2013-10-20 04:56:00,